Stampede Reservoir Weather Center

Moon Phase Calendar



Stampede Reservoir Water Level
Online Cameras

 


      

Current Conditions in Verdi
6/14/2024 10:19:20 PM

61°F
Feels Like 58
Clear
Humidity
24%
Pressure
30.18"
Wind
8 mph (S)
Dew Point
25°F
UV Index
0/10 (Low)
Visibility
6 mi

Hourly Forecast

Date & Time Fri, Jun 14
10:00 PM
Fri, Jun 14
11:00 PM
Sat, Jun 15
12:00 AM
Sat, Jun 15
1:00 AM
Sat, Jun 15
2:00 AM
Sat, Jun 15
3:00 AM
Sat, Jun 15
4:00 AM
Sat, Jun 15
5:00 AM
Sat, Jun 15
6:00 AM
Sat, Jun 15
7:00 AM
Sat, Jun 15
8:00 AM
Sat, Jun 15
9:00 AM
Sat, Jun 15
10:00 AM
Sat, Jun 15
11:00 AM
Sat, Jun 15
12:00 PM
Sat, Jun 15
1:00 PM
Sat, Jun 15
2:00 PM
Sat, Jun 15
3:00 PM
Sat, Jun 15
4:00 PM
Sat, Jun 15
5:00 PM
Sat, Jun 15
6:00 PM
Sat, Jun 15
7:00 PM
Sat, Jun 15
8:00 PM
Sat, Jun 15
9:00 PM
Sat, Jun 15
10:00 PM
Sat, Jun 15
11:00 PM
Sun, Jun 16
12:00 AM
Sun, Jun 16
1:00 AM
Sun, Jun 16
2:00 AM
Sun, Jun 16
3:00 AM
Sun, Jun 16
4:00 AM
Sun, Jun 16
5:00 AM
Sun, Jun 16
6:00 AM
Sun, Jun 16
7:00 AM
Sun, Jun 16
8:00 AM
Sun, Jun 16
9:00 AM
Sun, Jun 16
10:00 AM
Sun, Jun 16
11:00 AM
Sun, Jun 16
12:00 PM
Sun, Jun 16
1:00 PM
Sun, Jun 16
2:00 PM
Sun, Jun 16
3:00 PM
Sun, Jun 16
4:00 PM
Sun, Jun 16
5:00 PM
Sun, Jun 16
6:00 PM
Sun, Jun 16
7:00 PM
Sun, Jun 16
8:00 PM
Sun, Jun 16
9:00 PM
Condition
Clear

Clear

Clouds

Clouds

Clouds

Clouds

Clouds

Clouds

Clear

Clear

Clear

Clear

Clouds

Clouds

Clouds

Clouds

Clouds

Clouds

Clouds

Clouds

Clouds

Clouds

Clouds

Clouds

Clouds

Clouds

Clear

Clear

Clear

Clear

Clear

Clear

Clear

Clear

Clear

Clouds

Clear

Clear

Clear

Clouds

Clouds

Clouds

Clouds

Clouds

Clouds

Clouds

Clouds

Clouds
Temperature 61°F58°F55°F51°F46°F42°F42°F42°F42°F50°F58°F63°F67°F70°F72°F73°F73°F72°F71°F69°F66°F63°F56°F50°F47°F46°F45°F44°F43°F42°F41°F41°F42°F50°F57°F62°F66°F69°F71°F72°F70°F70°F68°F66°F63°F60°F55°F50°F
Feels Like 58°F55°F51°F47°F43°F37°F37°F37°F37°F47°F54°F60°F64°F67°F69°F71°F71°F70°F69°F67°F64°F60°F53°F47°F44°F43°F42°F41°F41°F42°F41°F41°F40°F50°F54°F59°F63°F66°F68°F69°F68°F67°F66°F63°F60°F57°F52°F47°F
Cloudiness 0%1%40%59%51%48%38%32%7%7%6%8%14%22%11%14%34%48%42%51%99%99%99%99%83%70%2%2%3%2%2%2%2%2%5%11%9%8%3%13%42%38%33%28%67%48%64%62%
Visibility 6 mi6 mi6 mi6 mi6 mi6 mi6 mi6 mi6 mi6 mi6 mi6 mi6 mi6 mi6 mi6 mi6 mi6 mi6 mi6 mi6 mi6 mi6 mi6 mi6 mi6 mi6 mi6 mi6 mi6 mi6 mi6 mi6 mi6 mi6 mi6 mi6 mi6 mi6 mi6 mi6 mi6 mi6 mi6 mi6 mi6 mi6 mi6 mi
Precipitation 0%0%0%0%0%0%0%0%0%0%0%0%0%0%0%0%0%0%0%0%0%0%0%0%0%0%0%0%0%0%0%0%0%0%0%0%0%0%0%0%0%0%0%0%0%0%0%0%
Humidity 24%30%36%40%42%43%39%34%30%23%14%13%12%12%12%12%13%15%16%18%19%20%28%33%35%36%35%34%34%35%35%35%35%28%22%19%18%16%15%15%16%17%18%19%21%24%28%34%
Dew Point 25°F27°F29°F28°F25°F20°F18°F15°F12°F13°F9°F10°F13°F14°F16°F18°F20°F21°F23°F23°F22°F21°F24°F21°F21°F19°F18°F17°F15°F15°F15°F14°F16°F17°F18°F19°F20°F21°F20°F21°F21°F22°F23°F22°F21°F22°F22°F22°F
Pressure 30.18"30.15"30.12"30.12"30.09"30.06"30.06"30.03"30.03"30"29.97"29.91"29.88"29.88"29.85"29.83"29.83"29.83"29.83"29.83"29.85"29.85"29.88"29.94"29.97"29.97"29.97"29.97"29.94"29.94"29.91"29.91"29.94"29.91"29.85"29.8"29.77"29.74"29.71"29.71"29.71"29.68"29.71"29.71"29.71"29.74"29.74"29.77"
Wind Speed 7.3 mph7.2 mph7 mph7.1 mph7 mph7.5 mph7.9 mph7.9 mph7 mph5.6 mph4.9 mph6 mph7.8 mph10.4 mph12.2 mph13.1 mph14.3 mph14.8 mph15 mph14.4 mph14.2 mph11.5 mph5.6 mph5.8 mph6.3 mph6.2 mph6 mph4.9 mph3.8 mph3 mph2.9 mph2.9 mph3.5 mph2.4 mph3.3 mph2.9 mph4.3 mph8.3 mph12.3 mph16.5 mph17.4 mph17.5 mph18 mph18.5 mph17.9 mph15.9 mph13.5 mph9.9 mph
Wind
Direction
205°
SSW
208°
SSW
210°
SSW
209°
SSW
217°
SW
217°
SW
221°
SW
215°
SW
225°
SW
234°
SW
230°
SW
238°
WSW
245°
WSW
249°
WSW
255°
WSW
257°
WSW
260°
W
257°
WSW
255°
WSW
257°
WSW
260°
W
262°
W
263°
W
247°
WSW
233°
SW
234°
SW
229°
SW
238°
WSW
254°
WSW
225°
SW
219°
SW
218°
SW
217°
SW
199°
SSW
167°
SSE
192°
SSW
276°
W
273°
W
258°
WSW
253°
WSW
252°
WSW
252°
WSW
251°
WSW
254°
WSW
253°
WSW
252°
WSW
243°
WSW
228°
SW

Daily Forecast

Date High Low Precip. Humidity
Today
Jun 14

Clear
77 °F
51 °F
0%
15%
Saturday
Jun 15

Clouds
73 °F
42 °F
0%
12%
Sunday
Jun 16

Clouds
72 °F
41 °F
0%
15%
Monday
Jun 17

Clear
63 °F
31 °F
0%
11%
Tuesday
Jun 18

Clouds
72 °F
36 °F
0%
12%
Wednesday
Jun 19

Clouds
72 °F
41 °F
0%
15%
Thursday
Jun 20

Clear
80 °F
43 °F
0%
15%
Friday
Jun 21

Clear
85 °F
49 °F
0%
15%
Saturday
Jun 22

Clear
90 °F
57 °F
0%
12%
Sunday
Jun 23

Clear
92 °F
57 °F
0%
13%
Monday
Jun 24

Rain
89 °F
56 °F
69%
16%
Tuesday
Jun 25

Clear
89 °F
54 °F
0%
12%
Wednesday
Jun 26

Clear
85 °F
53 °F
0%
14%
Thursday
Jun 27

Clear
79 °F
48 °F
0%
8%
Friday
Jun 28

Clear
79 °F
46 °F
0%
10%
Saturday
Jun 29

Clear
83 °F
46 °F
0%
11%

Temperature 8-14 Day Outlook



Precipitation 8-14 Day Outlook






About Us
Contact Us
Site Map
Search Site
Advertise With Us
   
StampedeReservoir.LakesOnline.com
THE STAMPEDE RESERVOIR WEBSITE

Copyright 2024, Lakes Online
Privacy    |    Legal